Content
SEND FEEDBACK

Daily
Averages
Monthly
Summary
Canada

VANCOUVER, BRITISH COLUMBIA


Home > North America > Canada > British Columbia
Elevation: 7 feet     Latitude: 49 11N     Longitude: 123 10W

WEATHER
 
SELECT A DAY
Number of Records: 254,959;   Date Range: 5/15/97 - 12/20/14
 
SHARE

PRINT THIS DATA

[ ← Previous Day ]
WEATHER ALMANAC - JANUARY 17, 2013
[ Next Day → ]
[ °C ]   °F
Weather ElementAverageHighLow
Temperature35.8 °F41 °F (11:35 am)32 °F (4:55 am)
Dewpoint32.3 °F33.8 °F (10:55 am)30.2 °F (5:15 am)
Humidity87.7 %100 % (4:55 am)70 % (1:55 pm)
Barometer30.40 in30.53 in (12:55 am)30.28 in (11:55 pm)
Wind Speed0.9 mph5.8 mph (11:55 am)
Weather ElementAverage
Visibility8.8 mi
Wind DirectionNNE (17.3 °)

Weather ElementTotal
Precipitation---
Heating Degree Days28.5 (Base 65)
Averaged from 62 records on January 17, 2013
WEATHER CONDITIONS BREAKOUT
WIND DIRECTION BREAKOUT
WEATHER BY HOUR - JANUARY 17, 2013
[ °C ]   °F
Local TimeTemperatureDewpointHumidityBarometerVisibilityWind DirectionWind SpeedGust SpeedPrecipitationEventsConditions
12:55 AM37.4 °F32.0 °F81 %30.53 in10.0 miCalmClear
1:15 AM37.4 °F32.0 °F81 %30.53 in10.0 miNorth (10°)4.6 mphClear
1:35 AM37.4 °F32.0 °F81 %30.52 in10.0 miNNE (20°)3.5 mphClear
1:55 AM37.4 °F32.0 °F81 %30.52 in10.0 miNNE (20°)4.6 mphClear
2:15 AM37.4 °F32.0 °F81 %30.51 in10.0 miNorth (360°)3.5 mphClear
2:35 AM37.4 °F32.0 °F81 %30.51 in10.0 miCalmClear
2:55 AM37.4 °F32.0 °F81 %30.50 in10.0 miCalmClear
3:15 AM37.4 °F32.0 °F81 %30.50 in10.0 miCalmClear
3:35 AM35.6 °F32.0 °F87 %30.48 in10.0 miNNE (20°)3.5 mphClear
3:55 AM35.6 °F32.0 °F87 %30.49 in10.0 miNNE (30°)3.5 mphClear
4:15 AM35.6 °F32.0 °F87 %30.48 in10.0 miCalmClear
4:35 AM33.8 °F32.0 °F93 %30.47 in10.0 miCalmClear
4:55 AM32.0 °F32.0 °F100 %30.47 in10.0 miCalmClear
5:15 AM32.0 °F30.2 °F93 %30.46 in10.0 miCalmClear
5:35 AM32.0 °F30.2 °F93 %30.46 in10.0 miCalmClear
5:55 AM32.0 °F30.2 °F93 %30.45 in10.0 miCalmClear
6:15 AM32.0 °F30.2 °F93 %30.45 in10.0 miCalmClear
6:35 AM32.0 °F32.0 °F100 %30.45 in10.0 miCalmClear
7:15 AM32.0 °F32.0 °F100 %30.44 in9.0 miCalmClear
7:55 AM37.4 °F32.0 °F81 %30.44 in10.0 miCalmClear
8:15 AM35.6 °F32.0 °F87 %30.44 in10.0 miCalmClear
8:35 AM35.6 °F32.0 °F87 %30.45 in10.0 miCalmClear
8:55 AM37.4 °F32.0 °F81 %30.45 in10.0 miCalmClear
9:15 AM37.4 °F32.0 °F81 %30.45 in10.0 miCalmClear
9:35 AM37.4 °F32.0 °F81 %30.44 in10.0 miCalmClear
9:55 AM37.4 °F32.0 °F81 %30.44 in10.0 miCalmClear
10:15 AM39.2 °F32.0 °F75 %30.44 in10.0 miCalmClear
10:35 AM39.2 °F32.0 °F75 %30.44 in10.0 miCalmClear
10:55 AM39.2 °F33.8 °F81 %30.43 in10.0 miCalmClear
11:15 AM39.2 °F33.8 °F81 %30.42 in10.0 miCalmClear
11:35 AM41.0 °F33.8 °F76 %30.41 in10.0 miCalmClear
11:55 AM39.2 °F33.8 °F81 %30.42 in10.0 miNNE (20°)5.8 mphClear
12:15 PM39.2 °F33.8 °F81 %30.41 in10.0 miNNE (30°)3.5 mphClear
12:35 PM39.2 °F33.8 °F81 %30.40 in10.0 miNE (40°)3.5 mphClear
12:55 PM39.2 °F33.8 °F81 %30.39 in10.0 miCalmClear
1:15 PM39.2 °F33.8 °F81 %30.38 in10.0 miENE (60°)5.8 mphClear
1:35 PM39.2 °F33.8 °F81 %30.36 in10.0 miNNW (340°)3.5 mphClear
1:55 PM41.0 °F32.0 °F70 %30.35 in10.0 miENE (60°)4.6 mphClear
2:15 PM41.0 °F33.8 °F76 %30.34 in10.0 miENE (60°)3.5 mphClear
2:35 PM39.2 °F33.8 °F81 %30.33 in10.0 miCalmClear
2:55 PM39.2 °F33.8 °F81 %30.33 in10.0 miCalmClear
3:15 PM39.2 °F33.8 °F81 %30.32 in10.0 miCalmClear
3:35 PM39.2 °F33.8 °F81 %30.31 in10.0 miCalmClear
3:55 PM39.2 °F33.8 °F81 %30.31 in10.0 miCalmClear
4:15 PM37.4 °F32.0 °F81 %30.31 in8.0 miCalmClear
4:55 PM35.6 °F32.0 °F87 %30.31 in6.0 miCalmClear
5:15 PM33.8 °F32.0 °F93 %30.31 in9.0 miCalmClear
5:35 PM32.0 °F32.0 °F100 %30.31 in10.0 miCalmClear
5:55 PM32.0 °F32.0 °F100 %30.31 in10.0 miCalmClear
6:15 PM32.0 °F32.0 °F100 %30.30 in9.0 miCalmClear
6:35 PM32.0 °F32.0 °F100 %30.30 in8.0 miCalmClear
6:55 PM32.0 °F32.0 °F100 %30.30 in8.0 miCalmClear
7:15 PM32.0 °F32.0 °F100 %30.31 in6.0 miCalmClear
7:35 PM32.0 °F32.0 °F100 %30.31 in7.0 miCalmClear
7:55 PM32.0 °F32.0 °F100 %30.31 in5.0 miCalmClear
9:15 PM32.0 °F32.0 °F100 %30.30 in3.0 miCalmClear
9:55 PM32.0 °F32.0 °F100 %30.30 in3.0 miCalmClear
10:15 PM32.0 °F32.0 °F100 %30.29 in4.0 miCalmPartly Cloudy
10:35 PM32.0 °F32.0 °F100 %30.29 in3.0 miCalmClear
10:55 PM32.0 °F32.0 °F100 %30.29 in3.0 miCalmClear
11:15 PM32.0 °F32.0 °F100 %30.29 in3.0 miCalmMostly Cloudy
11:55 PM32.0 °F32.0 °F100 %30.28 in0.2 miCalmFogFog
Hourly data recorded from CZBB, located miles away from Vancouver, British Columbia







STORIES FROM OUR PARTNERS